C/2004 L2 ( LINEAR )

Japanese version
Home page
Total 6,336 html files since Dec. 4, 1995
Updated on April 21, 2007

---------------------------------------------------------------------

* Profile

Discovery Date June 11, 2004
Magnitude 19.2 mag
Discoverer Lincoln Laboratory Near-Earth Asteroid Research project

* Pictures

* Orbital Elements

The following orbital elements are taken from MPC 54823:

Epoch 2005 Nov. 6.0 TT = JDT 2453680.5
T 2005 Nov. 15.1053 TT                                  MPC
q   3.778596             (2000.0)            P               Q
z  +0.001266       Peri.  257.3122      +0.4794681      -0.0555839
 +/-0.000004       Node    99.1800      +0.2112374      +0.9759583
e   0.995215       Incl.   62.5185      -0.8517565      +0.2107505
From 112 observations 2004 June 11-2005 Sept. 7, mean residual 0".6.

* Finding Charts

* Magnitudes Graph

        m1 = 9.5 + 5 log d + 6.5 log r

---------------------------------------------------------------------

The orbital elements are published at the MPC Ephemerides and Orbital Elements.
The charts are made with StellaNavigator Ver.2.0 for Windows (AstroArts / ASCII).
The magnitudes graphs are made with Comet for Windows.

---------------------------------------------------------------------

Copyright(C) 1995-2008 Seiichi Yoshida (comet@aerith.net). All rights reserved.